TimeCDT,TemperatureF,Dew PointF,Humidity,Sea Level PressureIn,VisibilityMPH,Wind Direction,Wind SpeedMPH,Gust SpeedMPH,PrecipitationIn,Events,Conditions,WindDirDegrees,DateUTC
12:53 AM,72.0,69.1,91,29.94,10.0,SSE,5.8,-,N/A,,Clear,150,2013-10-05 05:53:00
1:53 AM,71.1,68.0,90,29.95,10.0,Calm,Calm,-,N/A,,Clear,0,2013-10-05 06:53:00
2:53 AM,69.1,66.9,93,29.94,9.0,ESE,4.6,-,N/A,,Clear,120,2013-10-05 07:53:00
3:53 AM,68.0,66.9,96,29.93,8.0,SSE,3.5,-,N/A,,Clear,150,2013-10-05 08:53:00
4:53 AM,69.1,66.9,93,29.92,8.0,SSE,3.5,-,N/A,,Clear,150,2013-10-05 09:53:00
5:53 AM,69.1,66.9,93,29.91,9.0,SSE,4.6,-,N/A,,Clear,160,2013-10-05 10:53:00
6:53 AM,68.0,66.9,96,29.92,7.0,SSE,4.6,-,N/A,,Clear,150,2013-10-05 11:53:00
7:53 AM,70.0,69.1,97,29.92,7.0,SSE,4.6,-,N/A,,Clear,150,2013-10-05 12:53:00
8:53 AM,72.0,70.0,93,29.92,10.0,South,5.8,-,N/A,,Mostly Cloudy,170,2013-10-05 13:53:00
9:16 AM,73.4,69.8,88,29.94,10.0,SSW,3.5,-,N/A,,Mostly Cloudy,200,2013-10-05 14:16:00
9:53 AM,75.0,70.0,84,29.94,8.0,WSW,4.6,-,0.00,Rain,Light Rain,240,2013-10-05 14:53:00
10:53 AM,75.0,70.0,84,29.94,10.0,West,4.6,-,0.00,,Mostly Cloudy,270,2013-10-05 15:53:00
11:06 AM,75.2,69.8,83,29.96,10.0,SW,4.6,-,N/A,,Overcast,230,2013-10-05 16:06:00
11:20 AM,75.2,69.8,83,29.95,10.0,West,4.6,-,N/A,,Overcast,280,2013-10-05 16:20:00
11:29 AM,75.2,69.8,83,29.95,10.0,West,5.8,-,N/A,,Mostly Cloudy,280,2013-10-05 16:29:00
11:53 AM,77.0,69.1,76,29.93,10.0,Variable,4.6,-,N/A,,Mostly Cloudy,0,2013-10-05 16:53:00
12:53 PM,77.0,66.0,69,29.92,10.0,West,10.4,17.3,N/A,,Mostly Cloudy,280,2013-10-05 17:53:00
1:53 PM,72.0,64.9,78,29.85,10.0,WNW,4.6,-,0.01,,Mostly Cloudy,300,2013-10-05 18:53:00
2:53 PM,75.9,64.0,67,29.84,10.0,ESE,4.6,-,N/A,,Clear,110,2013-10-05 19:53:00
3:53 PM,75.0,66.0,73,29.88,10.0,West,4.6,-,N/A,,Clear,260,2013-10-05 20:53:00
4:53 PM,73.9,64.9,73,29.88,10.0,SW,3.5,-,N/A,,Scattered Clouds,220,2013-10-05 21:53:00
5:53 PM,73.0,64.0,73,29.87,10.0,South,3.5,-,N/A,,Mostly Cloudy,190,2013-10-05 22:53:00
6:53 PM,71.1,66.0,84,29.88,10.0,Calm,Calm,-,0.00,,Overcast,0,2013-10-05 23:53:00
7:25 PM,69.8,64.4,83,29.89,10.0,West,6.9,-,0.00,Rain,Light Rain,280,2013-10-06 00:25:00
7:44 PM,64.4,62.6,94,29.90,10.0,West,6.9,-,0.01,Rain,Light Rain,270,2013-10-06 00:44:00
7:53 PM,64.0,61.0,90,29.88,10.0,West,5.8,-,0.01,,Overcast,260,2013-10-06 00:53:00
8:15 PM,62.6,59.0,88,29.88,10.0,WNW,8.1,19.6,N/A,,Overcast,290,2013-10-06 01:15:00
8:37 PM,62.6,59.0,88,29.87,10.0,NNW,5.8,-,N/A,,Overcast,330,2013-10-06 01:37:00
8:47 PM,62.6,57.2,82,29.89,10.0,West,8.1,-,N/A,,Overcast,280,2013-10-06 01:47:00
8:53 PM,62.1,57.9,86,29.88,10.0,WNW,8.1,-,0.00,Rain,Light Rain,300,2013-10-06 01:53:00
9:45 PM,57.2,55.4,94,29.91,10.0,WNW,4.6,-,0.00,Rain,Light Rain,290,2013-10-06 02:45:00
9:53 PM,57.9,54.0,87,29.91,10.0,WNW,10.4,-,0.00,Rain,Light Rain,300,2013-10-06 02:53:00
10:11 PM,57.2,50.0,77,29.92,10.0,WNW,5.8,-,0.00,Rain,Light Rain,300,2013-10-06 03:11:00
10:53 PM,55.9,51.1,84,29.93,10.0,West,5.8,-,0.02,Rain,Light Rain,260,2013-10-06 03:53:00
11:53 PM,55.0,51.1,86,29.91,10.0,Variable,3.5,-,0.00,,Overcast,0,2013-10-06 04:53:00